Regional Weather Roundup
Issued by NWS

Home | Current Version | Previous Version | Graphics & Text | Print | Product List | Glossary Off
Versions: 1 2 3 4 5 6 7 8 9 10 11 12 13 14 15 16 17 18 19 20 21 22 23 24 25 26 27 28 29 30 31 32 33 34 35 36 37 38 39 40 41 42 43 44 45 46 47 48 49 50

000
ASUS43 KDTX 181001
RWRMI
MICHIGAN HOURLY REGIONAL WEATHER ROUNDUP
NATIONAL WEATHER SERVICE DETROIT/PONTIAC MI
600 AM EDT FRI APR 18 2014

NOTE: "FAIR" INDICATES FEW OR NO CLOUDS BELOW 12,000 FEET WITH NO
SIGNIFICANT WEATHER AND/OR OBSTRUCTION TO VISIBILITY.

MIZ047>049-052>055-059>063-066>070-074>076-081>083-181100-
SOUTHEAST LOWER MICHIGAN

CITY           SKY/WX    TMP DP  RH WIND       PRES   REMARKS
ADRIAN         CLOUDY    49  37  63 N6        30.26R
ALMA           CLOUDY    44  38  79 NW3       30.25S
ANN ARBOR      CLOUDY    50  38  63 N7        30.25R
BAD AXE        CLOUDY    42  34  71 CALM      30.25R
CARO           CLOUDY    46  43  91 CALM      30.24S
DETROIT CITY   CLOUDY    48  38  68 CALM      30.25R
DETROIT        CLOUDY    47  38  71 CALM      30.25R
FLINT          LGT RAIN  47  43  86 CALM      30.24F FOG
GROSSE ILE     CLOUDY    45  41  87 CALM      30.23R
HILLSDALE      CLOUDY    48  38  69 CALM      30.25R
HOWELL         RAIN      45  43  91 CALM      30.24R

CITY           SKY/WX    TMP DP  RH WIND       PRES   REMARKS
JACKSON        LGT RAIN  46  42  86 S3        30.25R FOG
LAMBERTVILLE   MOCLDY    45  36  70 CALM      30.25R
LANSING        LGT RAIN  45  43  93 CALM      30.25S FOG
LAPEER         LGT RAIN  45  42  88 CALM      30.24S
MASON          RAIN      45  43  95 CALM      30.24R
MONROE         MOCLDY    45  37  76 W5        30.24R
MT. CLEMENS    CLOUDY    42  38  86 N2        30.23R
PONTIAC        LGT RAIN  48  40  73 CALM      30.23R
PORT HOPE        N/A     42  34  73 NW5       30.24R
PORT HURON     CLOUDY    41  36  81 CALM      30.24S
TRI CITIES     CLOUDY    47  36  65 N8        30.25R
TROY           CLOUDY    50  38  62 N5        30.25R
SAGINAW HB     CLOUDY    45  41  87 CALM      30.25R
YPSILANTI      CLOUDY    51  36  56 NW3       30.25R
$$
MIZ043>046-050>051-056>058-064>065-071>073-077>080-181100-
SOUTHWEST LOWER MICHIGAN

CITY           SKY/WX    TMP DP  RH WIND       PRES   REMARKS
BATTLE CREEK   LGT RAIN  46  44  93 N3        30.24S FOG
BENTON HARBOR  CLOUDY    43  37  79 N3        30.25R
BIG RAPIDS     CLOUDY    39  38  99 CALM      30.25R
COLDWATER      CLOUDY    47  40  79 CALM      30.25R
FREMONT        CLOUDY    40  38  95 CALM      30.25S
HOLLAND        CLOUDY    43  37  79 NW5       30.27R
GRAND RAPIDS   CLOUDY    46  37  71 CALM      30.25R
IONIA          CLOUDY    45  37  73 CALM      30.24S
KALAMAZOO      CLOUDY    46  43  89 CALM      30.24S FOG
LUDINGTON      MOCLDY    34  33  95 N3        30.29R FOG
MARSHALL       LGT RAIN  44  43  97 CALM      30.23S
MOUNT PLEASANT CLOUDY    42  35  77 CALM      30.25R
MUSKEGON       CLOUDY    41  35  79 NW3       30.27R
SOUTH HAVEN    CLOUDY    42  37  80 CALM      30.26R
$$
MIZ016>042-181100-
NORTHERN LOWER MICHIGAN

CITY           SKY/WX    TMP DP  RH WIND       PRES   REMARKS
ALPENA         CLOUDY    35  30  82 W3        30.25R
BEAVER ISLAND  CLOUDY    33  31  93 NW7       30.28R WCI  27
BELLAIRE       CLOUDY    29  27  95 CALM      30.28R FOG
CADILLAC       CLOUDY    32  32  98 NW3       30.24R
CHARLEVOIX     CLOUDY    35  33  93 NW7       30.30R WCI  29
FRANKFORT      CLOUDY    36  30  80 N6        30.29R WCI  31
GAYLORD        PTCLDY    29  27  92 CALM      30.23R
GRAYLING         N/A     28  28  99 CALM      30.26R FOG
HARBOR SPRINGS CLOUDY    31  31  97 CALM      30.25S FOG
HOUGHTON LAKE  CLOUDY    32  30  92 CALM      30.25R
MANISTEE       CLOUDY    36  32  87 N5        30.29R WCI  32
OSCODA         CLOUDY    38  31  76 NW6       30.24R WCI  34
PELLSTON       CLOUDY    33  30  88 W5        30.26S WCI  29
ROGERS CITY    MOCLDY    33  31  91 NW7       30.26R WCI  27
TRAVERSE CITY  CLOUDY    36  32  85 NW7       30.27R WCI  30
$$
MIZ007>008-015-181100-
EASTERN UPPER MICHIGAN

CITY           SKY/WX    TMP DP  RH WIND       PRES   REMARKS
KINROSS        CLOUDY    32  30  93 NW10      30.23R WCI  24
MACKINAC ISLAN CLOUDY    31  31  97 NW7       30.24S WCI  25
NEWBERRY       MOCLDY    29  26  88 W6        30.24S WCI  23
S. S. MARIE    CLOUDY    33  29  85 W9        30.23R WCI  25
MUNISING         N/A     33  26  75 N6        30.28S WCI  28
$$
MIZ004>006-011>014-085-181100-
CENTRAL UPPER MICHIGAN

CITY           SKY/WX    TMP DP  RH WIND       PRES   REMARKS
MANISTIQUE     PTCLDY    31  28  88 NW7       30.27S WCI  24
ESCANABA       CLOUDY    34  27  75 NW3       30.29R
MENOMINEE      CLOUDY    34  27  75 N6        30.30R WCI  29
SAWYER-GWINN   PTCLDY    30  24  80 NW7       30.26S WCI  23
$$
MIZ001>003-009>011-084-181100-
WESTERN UPPER MICHIGAN

CITY           SKY/WX    TMP DP  RH WIND       PRES   REMARKS
IRON MOUNTAIN  CLOUDY    31  22  69 NW9       30.26S WCI  23
HOUGHTON       CLOUDY    30  26  85 NW12      30.27R WCI  20
COPPER HARBOR    N/A     31  28  89 N15       30.27R WCI  20
IRONWOOD         N/A     19  16  86 SW3       30.28R VSB 3/4
$$

ABBREVIATIONS USED IN REMARKS
   TC - TEMPERATURE IN CELSIUS
  WCI - WIND CHILL INDEX
   HX - HEAT INDEX
  VSB - VISIBILITY




USA.gov is the U.S. government's official web portal to all federal, state and local government web resources and services.